Regional Weather Roundup
Issued by NWS

Home | Current Version | Previous Version | Graphics & Text | Print | Product List | Glossary On
Versions: 1 2 3 4 5 6 7 8 9 10 11 12 13 14 15 16 17 18 19 20 21 22 23 24 25 26 27 28 29 30 31 32 33 34 35 36 37 38 39 40 41 42 43 44 45 46 47 48 49 50
631
ASUS45 KBOU 270507
RWRCO

WEATHER ROUNDUP FOR COLORADO
NATIONAL WEATHER SERVICE DENVER/BOULDER CO
1100 PM MDT FRI AUG 26 2016

NOTE: "FAIR" INDICATES FEW OR NO CLOUDS BELOW 12000 FEET WITH NO
SIGNIFICANT WEATHER AND/OR OBSTRUCTIONS TO VISIBILITY.

COZ001>005-013-030-031-270600-
...NORTHWEST COLORADO...

CITY           SKY/WX    TMP DP  RH WIND       PRES   REMARKS
CRAIG          FAIR      52  44  74 W5        30.24R
HAYDEN         FAIR      54  37  54 E6        30.24R
MEEKER         CLOUDY    55  44  66 NE3       30.24R
MOUNT WERNER   NOT AVBL
STEAMBOAT SPGS FAIR      50  40  68 W6        30.26R
WALDEN         FAIR      50  36  57 S9        30.30S
$$

COZ006>008-011-270600-
...WEST CENTRAL VALLEYS...

CITY           SKY/WX    TMP DP  RH WIND       PRES   REMARKS
GRAND JUNCTION FAIR      62  48  60 E13G18    30.17R
MONTROSE       FAIR      63  44  50 NW12      30.23R
EAGLE          MOCLDY    61  41  48 CALM      30.27R
RIFLE          LGT RAIN  55  52  89 W7        30.30R
DELTA          NOT AVBL
NUCLA          FAIR     N/A N/A N/A E6        30.23S
$$

COZ017>023-064>068-270600-
...SOUTHWEST COLORADO...

CITY           SKY/WX    TMP DP  RH WIND       PRES   REMARKS
DURANGO        FAIR      54  46  74 NE5       30.24S
CORTEZ         FAIR      58  53  84 E6        30.20R
PAGOSA SPRINGS FAIR      49  46  89 CALM      30.31S
TELLURIDE      FAIR      48  45  87 CALM      30.42R
WOLF CREEK PAS FAIR      37  37 100 SW12      30.57S
$$

COZ009-010-012-014-032>034-037-058>063-270600-
...CENTRAL COLORADO...

CITY           SKY/WX    TMP DP  RH WIND       PRES   REMARKS
ASPEN          MOCLDY    48  37  65 VRB5      30.33R
BUENA VISTA    CLOUDY    53  39  58 NE3       30.30S
COPPER MTN     FAIR      45  27  49 SW7       30.53S
BERTHOUD PASS  FAIR      34  21  60 NW12G18   30.53F WCI  25
COTTONWOOD PAS CLOUDY    54  28  37 SW7       30.41S
GUNNISON       FAIR      50  37  62 N6        30.33R
KREMMLING      FAIR      50  41  71 CALM      30.31R
LEADVILLE      FAIR      39  30  70 N3        30.41R
MONARCH PASS   MOCLDY    41  28  60 W14       30.64S
SALIDA         FAIR      57  37  47 W5        30.34F
SUNLIGHT       RAIN      41  39  93 E15G30    30.53R VSB 1/4
WILKERSON PASS FAIR      43  32  65 S6        30.51F
$$

COZ069>075-270600-
...SAN LUIS VALLEY/SANGRE DE CRISTO MOUNTAINS...

CITY           SKY/WX    TMP DP  RH WIND       PRES   REMARKS
ALAMOSA        FAIR      49  42  77 NE6       30.27F
LA VETA PASS   FAIR      46  34  61 S6        30.42F
SAGUACHE       MOCLDY    55  37  50 N8        30.31R
$$

COZ035-036-038>040-270600-
...NORTHERN COLORADO FRONT RANGE...

CITY           SKY/WX    TMP DP  RH WIND       PRES   REMARKS
DENVER INTL AP FAIR      56  49  77 S10       30.11F
DMNS CITY PARK   N/A     62  51  66 N2G8      30.13R
AURORA         PTCLDY    56  50  81 S9        30.13F
FRONT RANGE AP NOT AVBL
ERIE MUNI ARPT FAIR      56  49  78 N3        30.13S
BOULDER MUN AP FAIR      59  48  67 W3        30.14S
CENTENNIAL     FAIR      58  45  62 S7        30.14F
BROOMFIELD     NOT AVBL
FORT COLLINS   FAIR      59  48  67 N3        30.14S
LONGMONT       FAIR      59  50  72 NW3       30.15S
$$

COZ041-046-047-076>085-087-088-270600-
...PIKES PEAK/PALMER DIVIDE AND SOUTHERN FOOTHILLS...

CITY           SKY/WX    TMP DP  RH WIND       PRES   REMARKS
COLO. SPRINGS  MOCLDY    60  45  57 E5        30.20S
A. F. ACADEMY  FAIR      53  48  84 N5        30.20S
SCHRIEVER AFB  NOT AVBL
ELLICOTT       NOT AVBL
FALCON         FAIR      55  45  68 CALM      30.24S
FORT CARSON    FAIR      60  47  63 W8        30.16F
LIMON          FAIR      49  47  93 S7        30.15S
MONUMENT HILL  FAIR      50  45  81 S8        30.24S
TRINIDAD       FAIR      63  48  58 W7        30.16R
$$

COZ042>045-048>051-090-091-270600-
...NORTHEAST COLORADO...

CITY           SKY/WX    TMP DP  RH WIND       PRES   REMARKS
GREELEY ARPT   FAIR      54  50  87 N6        30.13S
AKRON          FAIR      55  50  83 S10       30.11S
BURLINGTON     FAIR      56  49  77 SE9       30.11S
WRAY           FAIR      54  54 100 CALM      30.09S
STERLING       FAIR      54  52  94 NW3       30.08S
HOLYOKE        FOG       59  55  88 S3        30.10R VSB 1/4
FORT MORGAN    FAIR      53  50  92 CALM      30.11S
$$

COZ086-089-092>099-270600-
...SOUTHEAST COLORADO...

CITY           SKY/WX    TMP DP  RH WIND       PRES   REMARKS
PUEBLO         FAIR      62  47  57 N7        30.09S
LA JUNTA       FAIR      63  54  72 E7        30.07R
LAMAR          FAIR      63  53  70 SE7       30.05R
SPRINGFIELD      N/A     60  58  92 S9        30.09S
$$




USA.gov is the U.S. government's official web portal to all federal, state and local government web resources and services.